EW6338 Weather Reports


Display with metric or nautical units.
time (UTC)temp
F
wind
direction
speed
MPH
gust
MPH
rain 1hr
in
rain 24hr
in
rain mn
in
humidity
%
barometer
mb
20260502163102 55 127 0.0 5.0 0.00 0.06 0.06 79 1010.0
20260502161623 54 60 0.0 5.0 0.00 0.06 0.06 79 1010.4
20260502151545 50 14 0.0 2.0 0.00 0.06 0.06 86 1010.4
20260502123034 44 310 0.0 1.0 0.03 0.04 0.04 91 1011.0
20260502121535 44 282 0.0 1.0 0.03 0.03 0.03 90 1011.1
20260502114524 44 254 0.0 1.0 0.02 0.02 0.02 87 1010.9
20260502113023 44 312 0.0 0.0 0.01 0.01 0.01 88 1010.4
20260502111522 44 257 0.0 0.0 0.00 0.00 0.00 90 1010.0
20260502110024 43 333 0.0 0.0 0.00 0.00 0.00 90 1010.1
20260502104520 43 49 0.0 0.0 0.00 0.00 0.00 90 1009.9
20260502103020 43 49 0.0 1.0 0.00 0.00 0.00 89 1010.1
20260502101533 43 51 0.0 1.0 0.00 0.00 0.00 87 1009.9
20260502091516 45 82 0.0 0.0 0.00 0.00 0.00 81 1010.0
20260502071507 45 119 0.0 0.0 0.00 0.00 0.00 77 1010.1
20260502070006 45 119 0.0 0.0 0.00 0.00 0.00 78 1009.9
20260502064505 45 119 0.0 0.0 0.00 0.00 0.00 78 1009.8
20260502063010 44 119 0.0 0.0 0.00 0.00 0.00 78 1009.9
20260502061502 43 119 0.0 0.0 0.00 0.00 0.00 79 1009.8
20260502060100 44 119 0.0 0.0 0.00 0.00 0.00 78 1009.9
20260502054558 44 119 0.0 0.0 0.00 0.00 0.00 77 1010.2
20260502053124 44 119 0.0 0.0 0.00 0.00 0.00 79 1010.2
20260502051607 46 119 0.0 0.0 0.00 0.00 0.00 74 1010.2
20260502050057 46 119 0.0 1.0 0.00 0.00 0.00 72 1010.5
20260502044550 45 119 0.0 0.0 0.00 0.00 0.00 76 1010.5
20260502043054 45 119 0.0 0.0 0.00 0.00 0.00 74 1010.3
20260502041604 45 119 0.0 1.0 0.00 0.00 0.00 69 1010.3
20260502040044 44 119 0.0 0.0 0.00 0.00 0.00 70 1010.3
20260502034539 44 119 0.0 0.0 0.00 0.01 0.00 68 1010.2
20260502033050 43 58 0.0 0.0 0.00 0.01 0.00 73 1010.2
20260502031538 43 53 0.0 0.0 0.00 0.01 0.00 71 1010.1
20260502030038 43 53 0.0 0.0 0.00 0.01 0.00 67 1010.1
20260502024537 43 53 0.0 0.0 0.00 0.01 0.00 70 1010.0
20260502023035 44 53 0.0 1.0 0.00 0.01 0.00 68 1010.0
20260502021534 44 53 0.0 0.0 0.00 0.01 0.00 64 1009.9
20260502020037 45 53 0.0 0.0 0.00 0.01 0.00 63 1010.0
20260502014533 47 53 0.0 0.0 0.00 0.01 0.00 64 1010.0
20260502013034 48 53 0.0 0.0 0.00 0.01 0.00 53 1009.9
20260502011532 47 53 0.0 0.0 0.00 0.01 0.00 53 1009.8
20260502010030 48 53 0.0 0.0 0.00 0.01 0.00 50 1009.7
20260502004528 49 53 0.0 0.0 0.00 0.01 0.00 49 1009.6
20260502003026 50 53 0.0 0.0 0.00 0.01 0.00 47 1009.3
20260502001525 51 53 0.0 0.0 0.00 0.01 0.00 45 1009.0
20260502000023 53 53 0.0 0.0 0.00 0.01 0.00 44 1008.8
20260501234520 55 53 0.0 0.0 0.00 0.01 0.00 42 1008.5
20260501233021 57 53 0.0 4.0 0.00 0.01 0.00 39 1008.2
20260501231519 58 23 0.0 1.0 0.00 0.01 0.00 38 1008.2
20260501230019 59 8 0.0 2.0 0.00 0.01 0.00 37 1008.1
20260501224518 60 252 0.0 4.0 0.00 0.01 0.00 36 1007.8
20260501223017 61 44 1.0 6.0 0.00 0.01 0.00 34 1007.8
20260501221519 62 96 0.0 6.0 0.00 0.01 0.00 34 1007.6
20260501220016 63 277 0.0 5.0 0.00 0.01 0.00 32 1007.5
20260501214516 63 224 1.0 7.0 0.00 0.01 0.00 34 1007.4
20260501213015 63 259 1.0 8.0 0.00 0.01 0.00 35 1007.1
20260501211515 63 321 1.0 8.0 0.00 0.01 0.00 34 1007.0
20260501210014 63 64 1.0 11.0 0.00 0.01 0.00 34 1007.0
20260501204519 64 195 1.0 6.0 0.00 0.01 0.00 34 1006.8
20260501203011 63 244 0.0 7.0 0.00 0.01 0.00 35 1006.8
20260501201511 63 284 2.0 7.0 0.00 0.01 0.00 35 1006.8
20260501200010 62 343 1.0 11.0 0.00 0.01 0.00 38 1006.8
20260501194509 62 50 3.0 9.0 0.00 0.01 0.00 36 1006.8
20260501193007 63 285 1.0 8.0 0.00 0.01 0.00 39 1007.0
20260501191506 64 311 1.0 11.0 0.00 0.01 0.00 38 1007.1
20260501190006 62 244 1.0 12.0 0.00 0.01 0.00 41 1007.1
20260501184504 60 47 2.0 13.0 0.00 0.02 0.00 41 1007.1
20260501183002 61 34 1.0 6.0 0.00 0.02 0.00 43 1007.3
20260501181501 61 226 1.0 8.0 0.00 0.02 0.00 45 1007.3
20260501180104 62 260 3.0 8.0 0.00 0.02 0.00 41 1007.4